GEFSMW_500_meanwind_258.txt.gz
Wind_Speed
46 46 45 45 45 44 44 44 44 44 43 43 42 42 42 41 41 40 40 38 37 36 36 35 35 34 34 34 33 33 33 33 33 32 32 32 32 31 32 32 32 33 33
46 46 46 46 46 45 45 45 45 45 45 44 44 43 43 43 42 41 40 39 38 37 37 37 36 35 35 35 34 34 34 34 35 34 34 34 34 33 33 34 34 35 35
45 45 45 46 46 46 45 45 45 45 45 45 45 44 44 44 43 43 42 40 40 39 38 38 37 37 36 36 36 36 35 35 36 36 36 35 35 35 35 35 35 35 36
45 45 45 45 46 46 46 46 45 45 45 45 45 45 45 44 44 44 44 42 41 41 40 39 39 38 38 38 38 37 37 37 37 37 37 36 36 36 36 36 36 36 36
46 46 46 46 46 46 46 46 46 46 46 46 46 45 45 45 44 44 44 44 43 42 42 42 41 41 40 39 39 39 39 39 39 38 38 37 36 37 37 37 36 36 36
46 46 47 47 47 46 46 47 47 47 47 46 46 46 45 45 45 45 45 45 44 44 43 42 43 43 42 41 41 41 41 41 41 40 40 39 38 37 37 37 36 36 36
46 46 47 47 47 47 47 48 48 48 47 47 47 47 47 47 46 46 45 45 45 45 44 44 44 45 44 43 42 42 42 42 42 42 41 40 39 39 38 37 37 36 36
46 47 47 47 47 48 49 48 49 48 49 49 48 48 48 48 48 47 47 46 46 46 46 45 45 45 45 45 44 43 43 43 42 42 42 41 41 40 39 39 38 38 38
45 45 46 46 47 48 49 49 49 49 50 50 50 49 49 49 49 49 48 47 47 46 46 46 45 45 45 46 46 44 44 44 43 43 43 43 42 41 41 41 41 40 39
43 45 46 46 47 47 48 49 49 50 50 51 50 50 49 49 49 49 48 48 47 47 46 46 46 46 46 46 46 45 45 45 45 44 44 43 43 43 42 42 42 42 41
41 42 43 44 45 46 47 48 49 50 50 50 50 50 49 48 48 48 48 48 48 47 47 47 47 46 46 46 46 46 45 45 46 45 44 43 43 43 43 43 43 42 42
39 41 41 42 43 44 45 47 48 49 49 49 49 49 49 49 48 48 48 49 49 49 48 47 47 46 46 46 46 45 45 45 45 45 45 44 43 43 43 43 43 42 42
37 39 40 41 42 43 43 45 47 48 49 49 49 49 49 49 49 48 49 49 49 50 50 48 47 46 46 45 45 45 45 45 45 45 44 44 43 43 43 42 43 43 43
35 36 37 39 41 43 43 44 45 47 48 49 49 49 49 49 49 49 49 50 50 50 50 49 48 47 46 45 46 45 45 44 44 43 43 43 43 43 43 43 43 43 44
34 34 36 38 39 41 42 43 44 46 47 48 48 49 49 49 49 49 49 49 50 50 50 49 49 48 47 46 46 45 45 45 44 44 44 44 43 44 44 44 44 44 45
34 34 35 36 37 38 40 42 43 44 46 47 48 48 49 50 50 50 49 49 50 50 50 50 49 49 48 48 48 47 46 45 45 45 45 44 44 43 43 43 44 44 45
33 34 34 34 36 37 38 39 40 42 43 44 46 46 47 48 49 50 50 49 49 50 50 49 49 49 48 48 47 48 47 46 45 45 45 44 43 44 44 44 44 44 45
32 33 34 34 35 36 38 39 39 39 40 41 43 45 46 47 47 48 49 49 49 49 49 49 49 49 48 47 47 48 47 46 45 45 45 44 44 44 45 44 44 44 44
32 33 33 34 35 36 37 38 39 39 39 40 40 41 43 45 45 46 46 46 46 46 47 47 47 47 47 47 47 48 47 46 45 45 45 44 44 44 45 45 45 44 44
31 32 33 33 35 36 36 36 37 37 38 38 38 39 40 41 43 44 44 45 45 45 45 46 46 46 45 46 46 47 46 45 44 45 45 45 45 45 45 45 45 44 44
31 32 32 32 33 34 35 36 36 36 37 37 37 37 38 39 40 41 42 42 43 43 44 44 45 45 45 45 45 45 45 44 43 44 44 44 44 44 44 44 44 44 44
29 30 30 31 31 32 34 35 35 35 36 36 36 36 36 36 38 38 39 40 41 41 42 43 44 44 44 45 45 45 44 43 42 43 43 43 42 42 42 43 42 42 42
27 28 28 29 29 29 29 30 32 32 33 34 34 33 34 34 34 35 36 37 38 39 41 42 43 43 43 43 44 44 44 43 42 43 43 43 43 42 42 42 42 41 41
25 25 26 26 26 26 26 26 27 28 29 30 31 31 31 31 31 31 33 34 36 36 37 38 39 40 41 42 42 42 43 43 42 42 42 42 42 42 41 40 40 40 39
23 24 25 26 26 26 26 26 26 26 27 28 29 29 30 30 29 29 30 32 33 34 34 35 36 37 38 39 40 40 41 41 41 41 41 41 41 41 40 39 40 39 39
23 24 24 25 25 26 25 26 26 26 27 28 28 28 28 29 29 28 28 29 31 32 33 33 33 34 34 36 36 37 37 38 38 38 39 39 39 38 38 38 38 38 38

GEFSMW_500_meanwind_264.txt.gz
Wind_Speed
46 47 47 47 47 47 47 46 46 46 46 46 45 45 44 43 43 42 41 41 40 39 38 37 36 35 34 34 33 33 33 33 33 33 32 32 31 31 31 31 31 31 31
47 47 48 48 48 49 48 48 47 47 47 47 46 46 46 45 44 44 43 42 42 41 40 39 38 37 36 36 36 35 34 34 34 34 33 33 32 32 32 32 32 32 32
47 47 48 48 49 49 49 49 48 48 48 47 47 47 47 46 46 45 45 44 43 43 42 41 41 40 38 37 37 37 36 35 35 35 35 34 34 33 34 33 33 34 34
46 47 48 49 49 49 49 49 49 49 49 49 48 48 47 46 46 46 46 45 45 44 44 43 42 42 40 39 39 39 38 37 36 36 36 36 36 35 35 35 35 35 36
45 46 47 47 48 49 49 50 49 49 49 49 49 49 48 48 47 47 47 47 46 45 45 44 43 43 42 41 40 40 40 39 38 37 37 37 37 37 37 36 36 36 37
44 45 46 46 47 48 49 49 49 49 49 49 49 49 49 49 48 48 48 48 47 46 45 45 44 44 44 43 41 42 41 41 40 40 39 39 39 39 39 38 38 38 37
42 43 45 46 46 47 48 48 48 48 49 49 49 49 49 49 49 49 48 48 48 47 47 46 46 45 45 44 43 42 43 42 42 42 42 41 41 41 40 40 40 40 39
41 42 43 45 46 47 47 47 47 48 48 49 49 49 49 49 49 49 49 49 48 48 48 48 47 46 45 45 44 43 44 44 43 43 43 42 42 41 42 42 41 41 40
41 42 43 44 45 46 47 47 47 47 48 48 50 50 50 50 49 50 50 50 49 48 48 47 47 47 46 45 45 45 44 44 43 43 43 43 43 42 43 42 42 41 41
40 42 43 44 45 46 46 46 47 48 48 48 49 50 51 51 50 50 50 50 50 49 49 49 48 47 47 46 46 46 46 45 45 44 44 44 44 43 43 43 43 43 42
40 41 41 43 44 45 46 46 47 48 48 48 48 50 51 51 51 51 51 51 51 50 50 50 49 49 48 48 47 47 46 46 46 46 45 44 45 45 43 43 44 44 44
39 40 41 42 43 45 46 46 46 47 48 48 48 49 49 50 51 51 51 51 51 51 51 50 50 50 49 50 49 49 48 47 47 46 46 45 46 45 44 44 44 43 43
36 38 40 41 42 44 46 47 47 46 46 47 48 48 49 49 50 50 51 51 51 51 51 51 51 50 49 49 49 49 49 48 47 46 46 46 46 46 45 44 43 43 43
34 36 38 39 41 43 44 46 46 46 46 46 46 47 47 48 49 50 51 51 51 51 51 50 50 49 49 49 49 49 48 48 48 47 46 46 46 45 45 45 44 43 43
31 33 35 37 38 40 41 43 44 44 45 45 46 46 47 48 48 48 49 50 51 51 50 50 49 49 49 49 49 49 48 48 47 47 47 47 47 46 45 45 45 44 44
31 32 33 35 37 39 40 41 42 43 44 45 45 46 47 48 48 48 48 50 50 50 50 50 50 50 50 49 49 49 48 48 47 47 47 46 46 46 45 44 45 45 44
31 32 33 34 36 38 39 40 41 41 42 43 44 45 46 47 48 48 48 49 50 51 51 51 52 51 51 50 50 49 49 48 48 48 47 46 46 46 46 45 46 46 46
31 32 33 34 36 37 38 40 41 41 42 43 43 44 45 46 47 47 48 48 49 50 51 51 51 52 52 51 51 50 49 49 49 49 48 47 47 46 47 47 46 46 46
30 32 33 35 36 37 38 38 40 41 42 42 43 44 44 45 45 46 47 47 48 49 50 50 51 51 51 51 51 50 50 50 50 50 49 49 48 48 48 47 46 46 46
29 31 32 33 35 36 37 37 39 40 41 41 42 43 44 44 44 44 45 45 46 47 48 48 49 49 50 51 51 51 50 50 50 50 49 49 49 48 48 48 47 46 46
28 29 30 31 32 33 34 35 36 37 38 39 40 40 41 41 41 42 43 43 44 44 45 46 47 48 48 49 50 50 51 50 50 49 49 49 49 49 49 48 48 47 47
27 28 29 29 29 30 31 32 33 35 36 37 37 38 38 38 39 39 40 41 42 42 43 44 44 45 46 47 48 49 50 51 51 51 50 50 50 49 49 49 48 47 46
27 27 28 28 28 29 30 30 31 33 34 35 36 36 36 36 37 38 39 39 40 41 42 42 43 44 45 45 45 46 47 48 50 50 50 50 49 48 48 47 46 46 45
26 26 27 27 28 28 28 29 30 31 32 33 34 34 35 35 35 36 36 37 37 38 39 40 41 41 42 43 43 44 44 44 45 46 47 47 47 47 46 46 45 45 45
24 24 25 25 26 26 27 27 28 29 29 30 31 32 33 33 33 33 33 34 34 35 36 37 38 38 39 40 41 41 42 42 41 42 43 44 45 45 45 45 45 44 44
21 22 22 22 24 24 25 25 26 27 28 28 29 30 31 32 32 32 32 32 32 33 33 34 36 36 36 36 38 39 40 40 40 40 40 41 42 42 43 43 43 43 43

GEFSMW_500_meanwind_270.txt.gz
Wind_Speed
47 47 47 46 46 46 46 46 46 46 46 46 46 45 45 44 44 43 41 39 39 38 38 38 37 36 35 34 34 33 33 32 31 30 30 30 30 30 29 29 29 29 29
47 48 48 47 46 46 46 46 46 46 47 47 46 46 46 46 45 44 44 43 42 41 41 40 39 38 37 36 35 34 34 34 33 32 31 31 31 31 31 31 31 31 31
47 48 48 48 47 48 47 48 47 47 47 47 47 46 46 46 46 45 45 45 44 43 42 42 41 40 39 38 37 37 36 35 34 33 33 32 32 32 32 32 32 32 32
46 47 47 48 48 48 48 48 48 47 47 47 47 46 46 46 46 45 46 46 45 44 44 43 43 42 41 40 39 39 38 37 36 35 35 34 34 33 33 33 33 33 33
45 46 47 48 48 48 49 49 49 48 47 47 47 47 46 46 46 46 46 46 46 45 45 44 44 43 42 41 41 40 40 39 38 37 36 36 36 35 34 34 33 33 33
43 45 46 47 48 48 49 49 49 49 48 48 48 48 47 46 46 47 47 47 47 47 46 46 45 44 43 42 42 41 41 40 39 39 39 38 37 37 36 35 35 35 34
42 43 44 46 47 47 48 49 49 49 48 48 48 48 48 47 47 47 47 48 47 47 47 47 46 45 44 44 43 42 42 41 41 40 40 39 38 38 37 37 37 37 35
40 41 43 44 46 47 48 49 50 49 49 49 48 48 48 48 48 48 47 48 48 47 46 47 46 45 45 45 44 44 43 43 43 42 41 40 39 38 39 38 38 38 38
39 40 42 43 44 46 48 49 49 49 50 49 49 49 49 50 50 49 48 48 49 49 48 48 47 46 46 46 46 45 45 44 44 43 43 42 41 41 40 40 40 40 39
38 39 41 42 44 45 46 47 48 49 49 49 49 49 50 50 51 50 50 50 51 50 50 50 49 48 47 46 46 46 46 46 45 44 44 43 43 43 43 42 42 42 41
37 39 41 42 43 44 45 46 47 48 48 49 50 50 50 50 50 51 51 51 52 52 52 51 50 50 49 48 48 47 47 46 45 45 44 44 44 44 44 44 43 43 42
35 37 39 41 42 44 45 46 46 47 48 49 49 50 51 51 50 50 51 51 51 51 52 51 50 50 50 49 48 48 48 48 47 46 46 45 45 45 45 45 44 44 44
35 37 38 39 40 42 43 44 45 45 47 48 50 50 50 51 51 51 51 51 51 51 51 52 51 51 51 50 50 49 49 49 49 48 48 48 47 47 47 47 46 45 46
34 36 38 39 39 40 42 42 44 45 46 47 48 49 50 50 50 50 49 49 50 50 50 51 52 52 51 51 51 51 50 50 50 50 49 49 48 48 48 48 47 47 46
34 35 37 38 40 41 41 42 43 44 45 47 47 47 48 49 48 48 48 48 48 48 49 50 51 51 51 51 51 51 51 51 51 51 50 49 49 47 47 47 47 47 46
34 35 36 38 40 41 42 43 43 44 45 46 46 47 47 48 48 48 48 48 47 47 48 49 49 50 51 51 52 53 53 52 51 50 50 49 48 47 46 46 46 45 45
31 34 36 38 39 41 42 43 44 45 46 46 46 47 47 47 48 48 48 49 49 49 48 48 49 49 50 51 52 53 53 52 51 50 49 49 48 48 48 48 47 46 45
29 31 33 35 37 38 40 42 43 44 45 46 47 48 48 48 48 48 48 48 48 48 49 49 49 48 48 50 51 52 52 51 51 50 50 49 48 47 48 48 47 47 46
29 30 31 32 34 36 37 38 39 40 41 43 45 46 48 48 48 48 48 48 48 48 48 48 48 48 48 49 49 50 51 50 50 50 50 49 48 48 48 48 48 47 47
28 29 29 31 32 34 35 36 38 38 39 40 42 44 45 46 46 46 47 47 47 47 47 47 47 47 46 47 48 49 50 50 50 50 50 49 49 49 48 48 48 48 47
28 28 28 30 31 33 34 34 35 36 37 38 39 40 41 42 43 44 45 46 46 47 47 47 47 46 46 46 46 46 47 48 49 49 49 49 49 49 48 49 49 48 48
26 27 27 28 30 32 33 33 34 35 36 36 37 37 37 39 40 41 42 43 43 44 45 45 45 45 45 45 45 45 45 46 47 48 48 48 48 49 49 49 49 49 48
25 25 26 27 28 29 30 31 32 33 34 35 35 35 35 36 37 38 39 39 40 41 42 42 43 43 43 43 44 45 45 45 45 46 47 47 47 48 48 49 48 48 48
25 25 26 26 26 27 28 29 30 30 31 31 33 33 34 35 35 35 36 37 38 39 39 40 41 42 42 42 43 44 44 44 44 43 44 45 45 45 46 46 47 48 48
26 26 25 25 25 25 26 27 27 27 27 28 29 30 31 32 32 33 34 35 36 37 38 38 39 40 40 41 41 42 42 43 43 42 42 43 44 44 44 44 45 45 46
23 24 24 24 23 23 24 24 25 25 25 25 26 26 27 29 30 31 32 33 34 35 36 36 37 37 38 38 38 39 40 40 40 40 40 41 42 42 42 42 42 42 43

GEFSMW_500_meanwind_276.txt.gz
Wind_Speed
46 47 47 47 46 46 45 45 46 46 45 45 45 44 44 43 43 43 42 41 40 39 39 39 38 36 35 35 34 33 33 33 33 31 30 30 29 29 29 28 28 27 26
45 47 47 47 47 47 46 46 46 46 46 45 45 44 44 44 43 43 43 42 41 41 40 39 39 38 37 37 36 35 34 33 33 32 31 31 31 30 30 29 28 28 28
44 46 47 46 46 46 46 46 46 46 45 45 45 45 45 45 44 44 44 42 41 40 39 40 39 39 39 38 38 37 37 36 34 33 32 32 32 31 30 30 29 29 29
44 45 47 46 46 46 46 46 47 46 46 45 45 46 45 45 45 44 44 43 42 42 41 41 41 40 40 39 39 39 38 37 36 36 34 33 33 32 31 31 31 30 30
43 44 46 45 45 46 46 46 47 47 47 47 47 46 46 46 46 45 45 44 44 44 44 43 43 42 41 41 41 40 39 39 38 38 37 35 35 34 34 33 33 32 32
42 43 45 45 45 46 47 47 47 48 48 48 48 48 46 46 46 46 46 45 45 44 44 44 44 44 43 43 42 41 41 41 40 39 38 38 37 36 36 36 35 34 34
42 43 45 45 46 46 47 48 48 48 49 49 49 49 47 47 47 47 47 47 46 46 45 44 44 44 44 43 43 42 42 43 42 41 40 40 39 38 37 37 38 37 36
40 42 44 45 46 47 48 48 48 48 49 49 50 50 49 49 49 48 48 48 47 47 46 45 45 44 43 43 43 43 43 44 44 43 42 41 41 40 39 39 39 39 38
39 41 42 43 45 46 48 49 48 48 49 50 50 51 51 50 49 49 49 49 48 47 47 47 47 46 45 45 44 44 44 45 45 44 43 42 42 41 41 41 41 40 39
36 38 40 42 44 45 47 48 48 49 49 49 50 51 51 50 50 49 49 49 49 48 48 48 47 47 46 46 46 45 45 45 46 45 44 44 43 43 42 41 41 41 41
34 36 38 41 43 45 46 47 48 48 49 49 50 50 51 50 50 49 49 49 49 49 48 48 48 48 48 48 47 47 46 46 46 46 46 45 45 45 45 44 44 43 42
34 35 37 39 41 42 44 45 45 46 47 50 51 50 50 51 51 50 49 49 50 50 50 50 49 49 49 48 48 48 48 47 47 46 46 46 46 46 46 46 46 45 45
34 35 36 38 40 41 42 43 44 45 46 48 49 50 51 51 50 50 49 50 50 51 51 51 51 50 50 50 50 50 49 49 49 48 47 47 47 47 47 47 47 47 46
34 36 36 38 39 40 41 42 43 44 45 46 47 48 49 49 50 50 50 50 50 50 51 51 51 51 51 51 51 51 51 50 50 50 49 48 48 48 48 48 48 48 47
30 34 36 37 37 38 40 41 42 43 43 44 46 47 47 48 49 50 50 50 50 50 50 50 50 50 51 52 52 53 53 53 52 51 50 50 49 50 50 50 50 49 49
30 31 34 36 37 38 39 40 41 42 43 44 44 45 46 46 48 49 49 50 50 50 51 51 51 51 51 51 51 52 52 52 52 52 52 51 51 51 51 51 50 50 50
30 31 32 35 37 38 39 39 40 40 42 43 44 45 45 45 46 47 48 49 50 50 51 51 52 52 51 51 51 51 51 52 52 52 52 52 52 52 52 51 51 50 50
30 30 31 32 34 36 37 39 39 39 39 40 41 43 44 45 46 46 47 48 49 50 51 51 51 51 51 51 51 51 51 52 52 53 53 52 52 53 52 52 51 51 50
27 28 29 31 32 34 35 36 37 38 39 39 40 41 43 43 43 44 45 46 48 49 49 50 50 51 51 51 51 51 51 51 52 52 53 53 52 53 53 53 52 51 51
26 26 27 28 30 32 34 35 36 38 38 39 40 40 41 42 43 43 44 45 46 47 48 48 49 48 49 49 49 50 50 50 51 52 53 53 52 52 53 53 52 52 51
25 26 26 26 28 30 31 33 35 36 37 38 39 40 40 41 41 42 42 43 44 45 46 47 48 48 47 47 48 49 49 49 50 50 50 51 51 52 52 52 51 51 51
25 26 26 27 27 28 30 31 32 34 35 36 38 38 39 39 40 40 41 41 42 43 44 45 46 47 47 47 47 47 48 48 48 48 49 49 49 50 50 50 50 50 51
25 26 26 27 27 27 28 29 31 32 34 34 35 36 36 36 37 37 38 39 40 41 42 44 44 45 46 46 46 46 46 47 47 47 47 48 48 48 48 49 49 49 49
24 25 25 26 26 27 26 27 28 29 30 32 33 34 34 35 35 36 37 37 38 39 40 41 42 43 44 44 45 45 45 46 46 45 45 46 47 47 47 47 48 48 49
24 24 25 25 25 26 26 26 26 27 27 28 30 31 32 33 34 35 36 36 36 36 37 38 39 41 42 42 43 44 44 44 44 44 44 45 45 46 46 46 46 46 47
24 25 25 25 24 25 25 25 25 25 25 26 27 28 29 30 31 32 32 33 33 33 33 34 36 37 39 40 41 41 42 42 42 43 43 43 44 44 44 44 44 45 44